Zurück zum Katalog

FALCON 9 R/B

AktivVLEO
NORAD 61732·ROCKET BODY·🇺🇸 United States

Gestartet Oct 7, 2024 von Cape Canaveral Space Force Station

Loading…

Nächste Überflüge (nächste 24 Stunden)

TLE

VeraltetSource: Space-Track

Epoche: Oct 7, 2024, 14:59 UTC

1 61732U 24180B   24281.62491802 -.00000101  32184-6  00000-0 0  9990
2 61732  34.1400  34.7539 0027900 134.8400 359.2800 16.36805402    04

Verfolge FALCON 9 R/B in Echtzeit mit AllMySat

Download on the App Store